Time,TemperatureF,DewpointF,PressureIn,WindDirection,WindDirectionDegrees,WindSpeedMPH,WindSpeedGustMPH,Humidity,HourlyPrecipIn,Conditions,Clouds,dailyrainin,SoftwareType,DateUTC
2013-03-06 00:00:00,33.0,26.9,30.09,WNW,292,14.0,15.0,78,0.00,,---,0.00,VWS V14.00,2013-03-06 06:00:00,
2013-03-06 00:05:00,33.0,26.9,30.09,West,270,16.0,20.0,78,0.00,,---,0.00,VWS V14.00,2013-03-06 06:05:00,
2013-03-06 00:10:00,33.0,26.9,30.09,WNW,292,16.0,19.0,78,0.00,,---,0.00,VWS V14.00,2013-03-06 06:10:00,
2013-03-06 00:15:00,33.0,27.2,30.09,WNW,292,15.0,19.0,79,0.00,,---,0.00,VWS V14.00,2013-03-06 06:15:00,
2013-03-06 00:20:00,33.0,26.9,30.09,WNW,292,23.0,23.0,78,0.00,,---,0.00,VWS V14.00,2013-03-06 06:20:00,
2013-03-06 00:25:00,33.0,26.9,30.09,WNW,292,19.0,22.0,78,0.00,,---,0.00,VWS V14.00,2013-03-06 06:25:00,
2013-03-06 00:30:00,33.0,26.9,30.10,WNW,292,19.0,21.0,78,0.00,,---,0.00,VWS V14.00,2013-03-06 06:30:00,
2013-03-06 00:35:00,33.0,27.2,30.10,WNW,292,15.0,18.0,79,0.00,,---,0.00,VWS V14.00,2013-03-06 06:35:00,
2013-03-06 00:40:00,33.0,27.2,30.10,WNW,292,14.0,19.0,79,0.00,,---,0.00,VWS V14.00,2013-03-06 06:40:00,
2013-03-06 00:45:00,33.0,27.5,30.11,WNW,292,18.0,19.0,80,0.00,,---,0.00,VWS V14.00,2013-03-06 06:45:00,
2013-03-06 00:50:00,33.0,27.5,30.11,WNW,292,17.0,23.0,80,0.00,,---,0.00,VWS V14.00,2013-03-06 06:50:00,
2013-03-06 00:55:00,33.0,27.5,30.11,WNW,292,18.0,21.0,80,0.00,,---,0.00,VWS V14.00,2013-03-06 06:55:00,
2013-03-06 01:00:00,33.0,27.5,30.12,WNW,292,16.0,20.0,80,0.00,,---,0.00,VWS V14.00,2013-03-06 07:00:00,
2013-03-06 01:05:00,33.0,27.5,30.12,WNW,292,19.0,22.0,80,0.00,,---,0.00,VWS V14.00,2013-03-06 07:05:00,
2013-03-06 01:10:00,33.0,27.5,30.12,NW,315,16.0,18.0,80,0.00,,---,0.00,VWS V14.00,2013-03-06 07:10:00,
2013-03-06 01:15:00,33.0,27.2,30.12,WNW,292,14.0,17.0,79,0.00,,---,0.00,VWS V14.00,2013-03-06 07:15:00,
2013-03-06 01:20:00,33.0,26.9,30.12,WNW,292,14.0,16.0,78,0.00,,---,0.00,VWS V14.00,2013-03-06 07:20:00,
2013-03-06 01:25:00,33.0,26.9,30.12,WNW,292,14.0,16.0,78,0.00,,---,0.00,VWS V14.00,2013-03-06 07:25:00,
2013-03-06 01:30:00,33.0,27.5,30.13,WNW,292,13.0,13.0,80,0.00,,---,0.00,VWS V14.00,2013-03-06 07:30:00,
2013-03-06 01:35:00,33.0,27.8,30.12,WNW,292,18.0,23.0,81,0.00,,---,0.00,VWS V14.00,2013-03-06 07:35:00,
2013-03-06 01:40:00,32.0,26.8,30.12,WNW,292,20.0,21.0,81,0.00,,---,0.00,VWS V14.00,2013-03-06 07:40:00,
2013-03-06 01:45:00,32.0,26.5,30.13,WNW,292,22.0,22.0,80,0.00,,---,0.00,VWS V14.00,2013-03-06 07:45:00,
2013-03-06 01:50:00,32.0,26.5,30.13,NW,315,16.0,21.0,80,0.00,,---,0.00,VWS V14.00,2013-03-06 07:50:00,
2013-03-06 01:55:00,33.0,26.9,30.13,WNW,292,20.0,22.0,78,0.00,,---,0.00,VWS V14.00,2013-03-06 07:55:00,
2013-03-06 02:00:00,32.0,25.9,30.13,WNW,292,22.0,24.0,78,0.00,,---,0.00,VWS V14.00,2013-03-06 08:00:00,
2013-03-06 02:05:00,32.0,26.2,30.13,WNW,292,24.0,27.0,79,0.00,,---,0.00,VWS V14.00,2013-03-06 08:05:00,
2013-03-06 02:10:00,32.0,25.9,30.13,NW,315,17.0,20.0,78,0.00,,---,0.00,VWS V14.00,2013-03-06 08:10:00,
2013-03-06 02:15:00,33.0,26.6,30.13,WNW,292,17.0,19.0,77,0.00,,---,0.00,VWS V14.00,2013-03-06 08:15:00,
2013-03-06 02:20:00,33.0,26.3,30.13,WNW,292,20.0,20.0,76,0.00,,---,0.00,VWS V14.00,2013-03-06 08:20:00,
2013-03-06 02:25:00,33.0,26.0,30.14,WNW,292,21.0,21.0,75,0.00,,---,0.00,VWS V14.00,2013-03-06 08:25:00,
2013-03-06 02:30:00,32.0,25.3,30.13,WNW,292,15.0,17.0,76,0.00,,---,0.00,VWS V14.00,2013-03-06 08:30:00,
2013-03-06 02:35:00,32.0,25.3,30.13,NW,315,14.0,14.0,76,0.00,,---,0.00,VWS V14.00,2013-03-06 08:35:00,
2013-03-06 02:40:00,32.0,25.3,30.13,WNW,292,16.0,16.0,76,0.00,,---,0.00,VWS V14.00,2013-03-06 08:40:00,
2013-03-06 02:45:00,32.0,25.3,30.13,WNW,292,18.0,23.0,76,0.00,,---,0.00,VWS V14.00,2013-03-06 08:45:00,
2013-03-06 02:50:00,32.0,25.3,30.14,WNW,292,18.0,19.0,76,0.00,,---,0.00,VWS V14.00,2013-03-06 08:50:00,
2013-03-06 02:55:00,32.0,25.3,30.14,WNW,292,27.0,27.0,76,0.00,,---,0.00,VWS V14.00,2013-03-06 08:55:00,
2013-03-06 03:00:00,32.0,25.3,30.14,WNW,292,23.0,23.0,76,0.00,,---,0.00,VWS V14.00,2013-03-06 09:00:00,
2013-03-06 03:05:00,32.0,25.3,30.14,WNW,292,21.0,21.0,76,0.00,,---,0.00,VWS V14.00,2013-03-06 09:05:00,
2013-03-06 03:10:00,32.0,25.0,30.14,WNW,292,19.0,19.0,75,0.00,,---,0.00,VWS V14.00,2013-03-06 09:10:00,
2013-03-06 03:15:00,32.0,25.0,30.14,WNW,292,19.0,25.0,75,0.00,,---,0.00,VWS V14.00,2013-03-06 09:15:00,
2013-03-06 03:20:00,32.0,25.3,30.15,WNW,292,11.0,11.0,76,0.00,,---,0.00,VWS V14.00,2013-03-06 09:20:00,
2013-03-06 03:25:00,32.0,25.3,30.15,NW,315,17.0,23.0,76,0.00,,---,0.00,VWS V14.00,2013-03-06 09:25:00,
2013-03-06 03:30:00,32.0,25.3,30.15,WNW,292,21.0,21.0,76,0.00,,---,0.00,VWS V14.00,2013-03-06 09:30:00,
2013-03-06 03:35:00,32.0,25.0,30.15,NW,315,21.0,26.0,75,0.00,,---,0.00,VWS V14.00,2013-03-06 09:35:00,
2013-03-06 03:40:00,32.0,25.0,30.16,WNW,292,18.0,21.0,75,0.00,,---,0.00,VWS V14.00,2013-03-06 09:40:00,
2013-03-06 03:45:00,32.0,25.0,30.16,WNW,292,19.0,24.0,75,0.00,,---,0.00,VWS V14.00,2013-03-06 09:45:00,
2013-03-06 03:50:00,32.0,24.7,30.16,NW,315,22.0,29.0,74,0.00,,---,0.00,VWS V14.00,2013-03-06 09:50:00,
2013-03-06 03:55:00,32.0,24.7,30.16,WNW,292,17.0,23.0,74,0.00,,---,0.00,VWS V14.00,2013-03-06 09:55:00,
2013-03-06 04:00:00,32.0,24.3,30.17,NNW,338,19.0,24.0,73,0.00,,---,0.00,VWS V14.00,2013-03-06 10:00:00,
2013-03-06 04:05:00,32.0,24.7,30.17,NW,315,14.0,18.0,74,0.00,,---,0.00,VWS V14.00,2013-03-06 10:05:00,
2013-03-06 04:10:00,32.0,24.7,30.17,WNW,292,14.0,18.0,74,0.00,,---,0.00,VWS V14.00,2013-03-06 10:10:00,
2013-03-06 04:15:00,32.0,24.7,30.17,NW,315,8.0,17.0,74,0.00,,---,0.00,VWS V14.00,2013-03-06 10:15:00,
2013-03-06 04:20:00,32.0,24.3,30.17,WNW,292,15.0,28.0,73,0.00,,---,0.00,VWS V14.00,2013-03-06 10:20:00,
2013-03-06 04:25:00,32.0,24.3,30.17,WNW,292,18.0,23.0,73,0.00,,---,0.00,VWS V14.00,2013-03-06 10:25:00,
2013-03-06 04:30:00,32.0,24.3,30.17,WNW,292,13.0,21.0,73,0.00,,---,0.00,VWS V14.00,2013-03-06 10:30:00,
2013-03-06 04:35:00,32.0,24.3,30.18,WNW,292,21.0,24.0,73,0.00,,---,0.00,VWS V14.00,2013-03-06 10:35:00,
2013-03-06 04:40:00,32.0,24.3,30.18,NW,315,15.0,21.0,73,0.00,,---,0.00,VWS V14.00,2013-03-06 10:40:00,
2013-03-06 04:45:00,32.0,24.7,30.19,WNW,292,16.0,21.0,74,0.00,,---,0.00,VWS V14.00,2013-03-06 10:45:00,
2013-03-06 04:50:00,32.0,24.7,30.19,WNW,292,21.0,24.0,74,0.00,,---,0.00,VWS V14.00,2013-03-06 10:50:00,
2013-03-06 04:55:00,32.0,24.7,30.19,WNW,292,18.0,19.0,74,0.00,,---,0.00,VWS V14.00,2013-03-06 10:55:00,
2013-03-06 05:00:00,32.0,25.0,30.19,WNW,292,15.0,18.0,75,0.00,,---,0.00,VWS V14.00,2013-03-06 11:00:00,
2013-03-06 05:05:00,32.0,24.7,30.20,WNW,292,20.0,21.0,74,0.00,,---,0.00,VWS V14.00,2013-03-06 11:05:00,
2013-03-06 05:10:00,32.0,24.7,30.20,WNW,292,18.0,22.0,74,0.00,,---,0.00,VWS V14.00,2013-03-06 11:10:00,
2013-03-06 05:15:00,32.0,24.7,30.21,NW,315,13.0,14.0,74,0.00,,---,0.00,VWS V14.00,2013-03-06 11:15:00,
2013-03-06 05:20:00,32.0,24.7,30.21,WNW,292,22.0,23.0,74,0.00,,---,0.00,VWS V14.00,2013-03-06 11:20:00,
2013-03-06 05:25:00,32.0,24.3,30.21,WNW,292,17.0,18.0,73,0.00,,---,0.00,VWS V14.00,2013-03-06 11:25:00,
2013-03-06 05:30:00,32.0,24.3,30.22,NW,315,12.0,12.0,73,0.00,,---,0.00,VWS V14.00,2013-03-06 11:30:00,
2013-03-06 05:35:00,32.0,24.3,30.22,NW,315,19.0,21.0,73,0.00,,---,0.00,VWS V14.00,2013-03-06 11:35:00,
2013-03-06 05:40:00,32.0,24.7,30.22,WNW,292,14.0,19.0,74,0.00,,---,0.00,VWS V14.00,2013-03-06 11:40:00,
2013-03-06 05:45:00,32.0,24.7,30.23,NW,315,13.0,13.0,74,0.00,,---,0.00,VWS V14.00,2013-03-06 11:45:00,
2013-03-06 05:50:00,32.0,24.7,30.22,WNW,292,23.0,24.0,74,0.00,,---,0.00,VWS V14.00,2013-03-06 11:50:00,
2013-03-06 05:55:00,32.0,24.7,30.23,NW,315,11.0,21.0,74,0.00,,---,0.00,VWS V14.00,2013-03-06 11:55:00,
2013-03-06 06:00:00,32.0,24.7,30.23,NW,315,18.0,21.0,74,0.00,,---,0.00,VWS V14.00,2013-03-06 12:00:00,
2013-03-06 06:05:00,32.0,24.7,30.24,NW,315,13.0,21.0,74,0.00,,---,0.00,VWS V14.00,2013-03-06 12:05:00,
2013-03-06 06:10:00,32.0,24.7,30.24,NW,315,14.0,20.0,74,0.00,,---,0.00,VWS V14.00,2013-03-06 12:10:00,
2013-03-06 06:15:00,32.0,24.7,30.24,NW,315,13.0,21.0,74,0.00,,---,0.00,VWS V14.00,2013-03-06 12:15:00,
2013-03-06 06:20:00,32.0,25.0,30.24,NW,315,16.0,19.0,75,0.00,,---,0.00,VWS V14.00,2013-03-06 12:20:00,
2013-03-06 06:25:00,32.0,24.7,30.25,NW,315,14.0,21.0,74,0.00,,---,0.00,VWS V14.00,2013-03-06 12:25:00,
2013-03-06 06:30:00,32.0,24.7,30.25,NW,315,11.0,18.0,74,0.00,,---,0.00,VWS V14.00,2013-03-06 12:30:00,
2013-03-06 06:35:00,32.0,25.0,30.25,NNW,338,8.0,13.0,75,0.00,,---,0.00,VWS V14.00,2013-03-06 12:35:00,
2013-03-06 06:40:00,32.0,25.0,30.25,NW,315,12.0,24.0,75,0.00,,---,0.00,VWS V14.00,2013-03-06 12:40:00,
2013-03-06 06:45:00,32.0,25.0,30.25,NW,315,11.0,18.0,75,0.00,,---,0.00,VWS V14.00,2013-03-06 12:45:00,
2013-03-06 06:50:00,32.0,25.0,30.26,WNW,292,19.0,24.0,75,0.00,,---,0.00,VWS V14.00,2013-03-06 12:50:00,
2013-03-06 06:55:00,32.0,25.0,30.26,NW,315,18.0,21.0,75,0.00,,---,0.00,VWS V14.00,2013-03-06 12:55:00,
2013-03-06 07:00:00,32.0,25.0,30.26,NW,315,13.0,18.0,75,0.00,,---,0.00,VWS V14.00,2013-03-06 13:00:00,
2013-03-06 07:05:00,32.0,25.3,30.26,NW,315,11.0,18.0,76,0.00,,---,0.00,VWS V14.00,2013-03-06 13:05:00,
2013-03-06 07:10:00,32.0,25.0,30.27,NW,315,19.0,22.0,75,0.00,,---,0.00,VWS V14.00,2013-03-06 13:10:00,
2013-03-06 07:15:00,32.0,25.3,30.27,WNW,292,11.0,18.0,76,0.00,,---,0.00,VWS V14.00,2013-03-06 13:15:00,
2013-03-06 07:20:00,32.0,25.3,30.27,NW,315,16.0,16.0,76,0.00,,---,0.00,VWS V14.00,2013-03-06 13:20:00,
2013-03-06 07:25:00,32.0,25.3,30.28,NW,315,15.0,15.0,76,0.00,,---,0.00,VWS V14.00,2013-03-06 13:25:00,
2013-03-06 07:30:00,32.0,25.0,30.28,NW,315,14.0,21.0,75,0.00,,---,0.00,VWS V14.00,2013-03-06 13:30:00,
2013-03-06 07:35:00,32.0,25.3,30.29,NW,315,16.0,19.0,76,0.00,,---,0.00,VWS V14.00,2013-03-06 13:35:00,
2013-03-06 07:40:00,32.0,25.3,30.29,WNW,292,17.0,20.0,76,0.00,,---,0.00,VWS V14.00,2013-03-06 13:40:00,
2013-03-06 07:45:00,32.0,25.3,30.29,WNW,292,16.0,19.0,76,0.00,,---,0.00,VWS V14.00,2013-03-06 13:45:00,
2013-03-06 07:50:00,32.0,25.0,30.29,NW,315,10.0,16.0,75,0.00,,---,0.00,VWS V14.00,2013-03-06 13:50:00,
2013-03-06 07:55:00,32.0,25.0,30.30,WNW,292,13.0,16.0,75,0.00,,---,0.00,VWS V14.00,2013-03-06 13:55:00,
2013-03-06 08:00:00,32.0,25.0,30.30,NW,315,10.0,13.0,75,0.00,,---,0.00,VWS V14.00,2013-03-06 14:00:00,
2013-03-06 08:05:00,32.0,25.0,30.30,WNW,292,16.0,16.0,75,0.00,,---,0.00,VWS V14.00,2013-03-06 14:05:00,
2013-03-06 08:10:00,32.0,25.0,30.30,NW,315,11.0,14.0,75,0.00,,---,0.00,VWS V14.00,2013-03-06 14:10:00,
2013-03-06 08:15:00,32.0,25.0,30.31,NW,315,15.0,17.0,75,0.00,,---,0.00,VWS V14.00,2013-03-06 14:15:00,
2013-03-06 08:20:00,32.0,24.7,30.30,NW,315,14.0,16.0,74,0.00,,---,0.00,VWS V14.00,2013-03-06 14:20:00,
2013-03-06 08:25:00,32.0,25.0,30.31,NW,315,16.0,23.0,75,0.00,,---,0.00,VWS V14.00,2013-03-06 14:25:00,
2013-03-06 08:30:00,33.0,26.0,30.31,WNW,292,19.0,19.0,75,0.00,,---,0.00,VWS V14.00,2013-03-06 14:30:00,
2013-03-06 08:35:00,33.0,26.0,30.31,NNW,338,13.0,13.0,75,0.00,,---,0.00,VWS V14.00,2013-03-06 14:35:00,
2013-03-06 08:40:00,33.0,25.6,30.31,NW,315,16.0,17.0,74,0.00,,---,0.00,VWS V14.00,2013-03-06 14:40:00,
2013-03-06 08:45:00,33.0,26.0,30.32,NNW,338,19.0,20.0,75,0.00,,---,0.00,VWS V14.00,2013-03-06 14:45:00,
2013-03-06 08:50:00,33.0,25.6,30.32,NW,315,15.0,19.0,74,0.00,,---,0.00,VWS V14.00,2013-03-06 14:50:00,
2013-03-06 08:55:00,33.0,25.6,30.32,WNW,292,16.0,16.0,74,0.00,,---,0.00,VWS V14.00,2013-03-06 14:55:00,
2013-03-06 09:00:00,33.0,26.0,30.32,NNW,338,14.0,23.0,75,0.00,,---,0.00,VWS V14.00,2013-03-06 15:00:00,
2013-03-06 09:05:00,33.0,25.6,30.32,NW,315,16.0,21.0,74,0.00,,---,0.00,VWS V14.00,2013-03-06 15:05:00,
2013-03-06 09:10:00,33.0,25.6,30.32,NW,315,14.0,16.0,74,0.00,,---,0.00,VWS V14.00,2013-03-06 15:10:00,
2013-03-06 09:15:00,33.0,25.6,30.32,NW,315,14.0,15.0,74,0.00,,---,0.00,VWS V14.00,2013-03-06 15:15:00,
2013-03-06 09:20:00,33.0,25.6,30.32,NNW,338,23.0,23.0,74,0.00,,---,0.00,VWS V14.00,2013-03-06 15:20:00,
2013-03-06 09:25:00,33.0,25.6,30.33,NW,315,21.0,24.0,74,0.00,,---,0.00,VWS V14.00,2013-03-06 15:25:00,
2013-03-06 09:30:00,33.0,25.3,30.33,NW,315,19.0,20.0,73,0.00,,---,0.00,VWS V14.00,2013-03-06 15:30:00,
2013-03-06 09:35:00,34.0,26.6,30.33,NW,315,18.0,20.0,74,0.00,,---,0.00,VWS V14.00,2013-03-06 15:35:00,
2013-03-06 09:40:00,34.0,26.6,30.33,WNW,292,14.0,15.0,74,0.00,,---,0.00,VWS V14.00,2013-03-06 15:40:00,
2013-03-06 09:45:00,33.0,25.6,30.33,WNW,292,18.0,21.0,74,0.00,,---,0.00,VWS V14.00,2013-03-06 15:45:00,
2013-03-06 09:50:00,34.0,26.6,30.33,NW,315,11.0,12.0,74,0.00,,---,0.00,VWS V14.00,2013-03-06 15:50:00,
2013-03-06 09:55:00,34.0,26.9,30.34,NNW,338,16.0,16.0,75,0.00,,---,0.00,VWS V14.00,2013-03-06 15:55:00,
2013-03-06 10:00:00,33.0,25.6,30.34,WNW,292,11.0,15.0,74,0.00,,---,0.00,VWS V14.00,2013-03-06 16:00:00,
2013-03-06 10:05:00,34.0,26.6,30.34,NNW,338,13.0,13.0,74,0.00,,---,0.00,VWS V14.00,2013-03-06 16:05:00,
2013-03-06 10:10:00,34.0,26.3,30.34,NW,315,13.0,13.0,73,0.00,,---,0.00,VWS V14.00,2013-03-06 16:10:00,
2013-03-06 10:15:00,34.0,26.6,30.34,NW,315,14.0,14.0,74,0.00,,---,0.00,VWS V14.00,2013-03-06 16:15:00,
2013-03-06 10:20:00,34.0,26.3,30.34,NNW,338,15.0,18.0,73,0.00,,---,0.00,VWS V14.00,2013-03-06 16:20:00,
2013-03-06 10:25:00,34.0,26.3,30.34,NW,315,21.0,23.0,73,0.00,,---,0.00,VWS V14.00,2013-03-06 16:25:00,
2013-03-06 10:30:00,34.0,26.3,30.35,NW,315,13.0,19.0,73,0.00,,---,0.00,VWS V14.00,2013-03-06 16:30:00,
2013-03-06 10:35:00,34.0,26.3,30.35,NW,315,11.0,12.0,73,0.00,,---,0.00,VWS V14.00,2013-03-06 16:35:00,
2013-03-06 10:40:00,34.0,26.3,30.35,NW,315,13.0,18.0,73,0.00,,---,0.00,VWS V14.00,2013-03-06 16:40:00,
2013-03-06 10:45:00,34.0,26.3,30.35,WNW,292,23.0,23.0,73,0.00,,---,0.00,VWS V14.00,2013-03-06 16:45:00,
2013-03-06 10:50:00,34.0,26.6,30.35,NW,315,16.0,18.0,74,0.00,,---,0.00,VWS V14.00,2013-03-06 16:50:00,
2013-03-06 10:55:00,34.0,26.3,30.36,NNW,338,17.0,18.0,73,0.00,,---,0.00,VWS V14.00,2013-03-06 16:55:00,
2013-03-06 11:00:00,34.0,26.3,30.35,NNW,338,24.0,25.0,73,0.00,,---,0.00,VWS V14.00,2013-03-06 17:00:00,
2013-03-06 11:05:00,34.0,26.3,30.36,NNW,338,18.0,21.0,73,0.00,,---,0.00,VWS V14.00,2013-03-06 17:05:00,
2013-03-06 11:10:00,34.0,26.3,30.36,NW,315,16.0,16.0,73,0.00,,---,0.00,VWS V14.00,2013-03-06 17:10:00,
2013-03-06 11:15:00,34.0,25.9,30.36,NNW,338,16.0,18.0,72,0.00,,---,0.00,VWS V14.00,2013-03-06 17:15:00,
2013-03-06 11:20:00,35.0,26.9,30.36,NNW,338,12.0,13.0,72,0.00,,---,0.00,VWS V14.00,2013-03-06 17:20:00,
2013-03-06 11:25:00,35.0,26.9,30.36,NW,315,13.0,14.0,72,0.00,,---,0.00,VWS V14.00,2013-03-06 17:25:00,
2013-03-06 11:30:00,35.0,26.9,30.36,NW,315,15.0,19.0,72,0.00,,---,0.00,VWS V14.00,2013-03-06 17:30:00,
2013-03-06 11:35:00,35.0,27.2,30.36,NW,315,11.0,11.0,73,0.00,,---,0.00,VWS V14.00,2013-03-06 17:35:00,
2013-03-06 11:40:00,35.0,26.9,30.36,WNW,292,10.0,16.0,72,0.00,,---,0.00,VWS V14.00,2013-03-06 17:40:00,
2013-03-06 11:45:00,35.0,26.9,30.36,WNW,292,13.0,14.0,72,0.00,,---,0.00,VWS V14.00,2013-03-06 17:45:00,
2013-03-06 11:50:00,35.0,26.9,30.36,NNW,338,16.0,17.0,72,0.00,,---,0.00,VWS V14.00,2013-03-06 17:50:00,
2013-03-06 11:55:00,35.0,26.6,30.36,NW,315,16.0,16.0,71,0.00,,---,0.00,VWS V14.00,2013-03-06 17:55:00,
2013-03-06 12:00:00,35.0,26.9,30.36,NNW,338,16.0,23.0,72,0.00,,---,0.00,VWS V14.00,2013-03-06 18:00:00,
2013-03-06 12:05:00,36.0,27.9,30.35,NNW,338,14.0,14.0,72,0.00,,---,0.00,VWS V14.00,2013-03-06 18:05:00,
2013-03-06 12:10:00,36.0,27.2,30.35,NW,315,11.0,11.0,70,0.00,,---,0.00,VWS V14.00,2013-03-06 18:10:00,
2013-03-06 12:15:00,37.0,28.5,30.35,NW,315,6.0,10.0,71,0.00,,---,0.00,VWS V14.00,2013-03-06 18:15:00,
2013-03-06 12:20:00,37.0,27.4,30.34,NW,315,11.0,11.0,68,0.00,,---,0.00,VWS V14.00,2013-03-06 18:20:00,
2013-03-06 12:25:00,37.0,27.8,30.34,NW,315,13.0,14.0,69,0.00,,---,0.00,VWS V14.00,2013-03-06 18:25:00,
2013-03-06 12:30:00,37.0,27.4,30.34,NNW,338,11.0,11.0,68,0.00,,---,0.00,VWS V14.00,2013-03-06 18:30:00,
2013-03-06 12:35:00,37.0,27.4,30.34,NW,315,12.0,14.0,68,0.00,,---,0.00,VWS V14.00,2013-03-06 18:35:00,
2013-03-06 12:40:00,36.0,26.5,30.34,NW,315,13.0,15.0,68,0.00,,---,0.00,VWS V14.00,2013-03-06 18:40:00,
2013-03-06 12:45:00,38.0,28.4,30.34,NNW,338,19.0,23.0,68,0.00,,---,0.00,VWS V14.00,2013-03-06 18:45:00,
2013-03-06 12:50:00,38.0,28.0,30.34,WNW,292,18.0,18.0,67,0.00,,---,0.00,VWS V14.00,2013-03-06 18:50:00,
2013-03-06 12:55:00,37.0,27.1,30.34,NNW,338,18.0,21.0,67,0.00,,---,0.00,VWS V14.00,2013-03-06 18:55:00,
2013-03-06 13:00:00,38.0,28.0,30.33,NNW,338,16.0,18.0,67,0.00,,---,0.00,VWS V14.00,2013-03-06 19:00:00,
2013-03-06 13:05:00,38.0,28.0,30.34,NW,315,11.0,13.0,67,0.00,,---,0.00,VWS V14.00,2013-03-06 19:05:00,
2013-03-06 13:10:00,37.0,26.7,30.34,NW,315,11.0,16.0,66,0.00,,---,0.00,VWS V14.00,2013-03-06 19:10:00,
2013-03-06 13:15:00,38.0,27.7,30.34,NNW,338,11.0,16.0,66,0.00,,---,0.00,VWS V14.00,2013-03-06 19:15:00,
2013-03-06 13:20:00,38.0,28.0,30.33,NNW,338,12.0,12.0,67,0.00,,---,0.00,VWS V14.00,2013-03-06 19:20:00,
2013-03-06 13:25:00,38.0,27.7,30.33,NW,315,10.0,20.0,66,0.00,,---,0.00,VWS V14.00,2013-03-06 19:25:00,
2013-03-06 13:30:00,38.0,27.7,30.33,NNW,338,12.0,12.0,66,0.00,,---,0.00,VWS V14.00,2013-03-06 19:30:00,
2013-03-06 13:35:00,38.0,27.3,30.33,NW,315,7.0,11.0,65,0.00,,---,0.00,VWS V14.00,2013-03-06 19:35:00,
2013-03-06 13:40:00,39.0,28.6,30.33,North,0,6.0,17.0,66,0.00,,---,0.00,VWS V14.00,2013-03-06 19:40:00,
2013-03-06 13:45:00,39.0,28.6,30.32,WNW,292,11.0,16.0,66,0.00,,---,0.00,VWS V14.00,2013-03-06 19:45:00,
2013-03-06 13:50:00,39.0,27.9,30.32,WNW,292,13.0,18.0,64,0.00,,---,0.00,VWS V14.00,2013-03-06 19:50:00,
2013-03-06 13:55:00,39.0,28.2,30.33,WNW,292,11.0,13.0,65,0.00,,---,0.00,VWS V14.00,2013-03-06 19:55:00,
2013-03-06 14:00:00,39.0,28.2,30.32,NW,315,15.0,18.0,65,0.00,,---,0.00,VWS V14.00,2013-03-06 20:00:00,
2013-03-06 14:05:00,39.0,27.9,30.32,NNW,338,10.0,16.0,64,0.00,,---,0.00,VWS V14.00,2013-03-06 20:05:00,
2013-03-06 14:10:00,39.0,28.2,30.32,SSW,202,6.0,6.0,65,0.00,,---,0.00,VWS V14.00,2013-03-06 20:10:00,
2013-03-06 14:15:00,38.0,26.9,30.32,NW,315,9.0,12.0,64,0.00,,---,0.00,VWS V14.00,2013-03-06 20:15:00,
2013-03-06 14:20:00,39.0,27.5,30.32,NW,315,13.0,14.0,63,0.00,,---,0.00,VWS V14.00,2013-03-06 20:20:00,
2013-03-06 14:25:00,40.0,28.8,30.32,WNW,292,13.0,18.0,64,0.00,,---,0.00,VWS V14.00,2013-03-06 20:25:00,
2013-03-06 14:30:00,39.0,27.5,30.33,NW,315,13.0,18.0,63,0.00,,---,0.00,VWS V14.00,2013-03-06 20:30:00,
2013-03-06 14:35:00,40.0,28.4,30.32,NNW,338,6.0,15.0,63,0.00,,---,0.00,VWS V14.00,2013-03-06 20:35:00,
2013-03-06 14:40:00,41.0,29.8,30.32,NW,315,5.0,13.0,64,0.00,,---,0.00,VWS V14.00,2013-03-06 20:40:00,
2013-03-06 14:45:00,40.0,27.6,30.32,NW,315,14.0,19.0,61,0.00,,---,0.00,VWS V14.00,2013-03-06 20:45:00,
2013-03-06 14:50:00,40.0,28.0,30.32,NNW,338,10.0,13.0,62,0.00,,---,0.00,VWS V14.00,2013-03-06 20:50:00,
2013-03-06 14:55:00,40.0,28.0,30.32,NNW,338,12.0,15.0,62,0.00,,---,0.00,VWS V14.00,2013-03-06 20:55:00,
2013-03-06 15:00:00,40.0,28.0,30.32,NW,315,12.0,16.0,62,0.00,,---,0.00,VWS V14.00,2013-03-06 21:00:00,
2013-03-06 15:05:00,41.0,28.6,30.32,North,0,5.0,10.0,61,0.00,,---,0.00,VWS V14.00,2013-03-06 21:05:00,
2013-03-06 15:10:00,41.0,29.0,30.32,WNW,292,11.0,16.0,62,0.00,,---,0.00,VWS V14.00,2013-03-06 21:10:00,
2013-03-06 15:15:00,40.0,27.6,30.32,NNW,338,8.0,11.0,61,0.00,,---,0.00,VWS V14.00,2013-03-06 21:15:00,
2013-03-06 15:20:00,42.0,30.3,30.32,NW,315,8.0,13.0,63,0.00,,---,0.00,VWS V14.00,2013-03-06 21:20:00,
2013-03-06 15:25:00,41.0,28.2,30.32,NNW,338,9.0,10.0,60,0.00,,---,0.00,VWS V14.00,2013-03-06 21:25:00,
2013-03-06 15:29:00,40.0,27.2,30.33,NW,315,7.0,11.0,60,0.00,,---,0.00,VWS V14.00,2013-03-06 21:29:00,
2013-03-06 15:34:00,40.0,27.6,30.33,NW,315,10.0,15.0,61,0.00,,---,0.00,VWS V14.00,2013-03-06 21:34:00,
2013-03-06 15:39:00,41.0,28.6,30.33,NNW,338,12.0,12.0,61,0.00,,---,0.00,VWS V14.00,2013-03-06 21:39:00,
2013-03-06 15:44:00,40.0,27.6,30.33,NNW,338,9.0,13.0,61,0.00,,---,0.00,VWS V14.00,2013-03-06 21:44:00,
2013-03-06 15:49:00,40.0,28.4,30.33,NW,315,8.0,12.0,63,0.00,,---,0.00,VWS V14.00,2013-03-06 21:49:00,
2013-03-06 15:54:00,40.0,28.0,30.33,WNW,292,8.0,9.0,62,0.00,,---,0.00,VWS V14.00,2013-03-06 21:54:00,
2013-03-06 15:59:00,40.0,28.4,30.33,NW,315,10.0,12.0,63,0.00,,---,0.00,VWS V14.00,2013-03-06 21:59:00,
2013-03-06 16:05:00,40.0,28.4,30.33,NNW,338,11.0,15.0,63,0.00,,---,0.00,VWS V14.00,2013-03-06 22:05:00,
2013-03-06 16:09:00,40.0,28.4,30.33,North,0,8.0,11.0,63,0.00,,---,0.00,VWS V14.00,2013-03-06 22:09:00,
2013-03-06 16:15:00,40.0,28.8,30.33,NNW,338,13.0,16.0,64,0.00,,---,0.00,VWS V14.00,2013-03-06 22:15:00,
2013-03-06 16:19:00,40.0,28.8,30.33,NNW,338,8.0,13.0,64,0.00,,---,0.00,VWS V14.00,2013-03-06 22:19:00,
2013-03-06 16:24:00,39.0,27.9,30.33,NNW,338,8.0,14.0,64,0.00,,---,0.00,VWS V14.00,2013-03-06 22:24:00,
2013-03-06 16:29:00,40.0,29.6,30.33,NNW,338,10.0,11.0,66,0.00,,---,0.00,VWS V14.00,2013-03-06 22:29:00,
2013-03-06 16:34:00,39.0,28.2,30.33,NNW,338,10.0,13.0,65,0.00,,---,0.00,VWS V14.00,2013-03-06 22:34:00,
2013-03-06 16:39:00,39.0,28.2,30.33,NNW,338,10.0,13.0,65,0.00,,---,0.00,VWS V14.00,2013-03-06 22:39:00,
2013-03-06 16:44:00,39.0,28.6,30.33,NNW,338,12.0,13.0,66,0.00,,---,0.00,VWS V14.00,2013-03-06 22:44:00,
2013-03-06 16:49:00,39.0,28.6,30.33,NNW,338,13.0,14.0,66,0.00,,---,0.00,VWS V14.00,2013-03-06 22:49:00,
2013-03-06 16:54:00,39.0,28.2,30.33,NW,315,14.0,16.0,65,0.00,,---,0.00,VWS V14.00,2013-03-06 22:54:00,
2013-03-06 16:59:00,39.0,28.6,30.33,NW,315,13.0,14.0,66,0.00,,---,0.00,VWS V14.00,2013-03-06 22:59:00,
2013-03-06 17:04:00,39.0,28.6,30.33,NW,315,8.0,10.0,66,0.00,,---,0.00,VWS V14.00,2013-03-06 23:04:00,
2013-03-06 17:09:00,39.0,28.6,30.33,NW,315,7.0,11.0,66,0.00,,---,0.00,VWS V14.00,2013-03-06 23:09:00,
2013-03-06 17:14:00,39.0,29.0,30.34,NW,315,13.0,13.0,67,0.00,,---,0.00,VWS V14.00,2013-03-06 23:14:00,
2013-03-06 17:19:00,38.0,28.0,30.34,NNW,338,9.0,12.0,67,0.00,,---,0.00,VWS V14.00,2013-03-06 23:19:00,
2013-03-06 17:24:00,38.0,28.0,30.34,NNW,338,12.0,14.0,67,0.00,,---,0.00,VWS V14.00,2013-03-06 23:24:00,
2013-03-06 17:29:00,38.0,28.0,30.34,NNW,338,10.0,13.0,67,0.00,,---,0.00,VWS V14.00,2013-03-06 23:29:00,
2013-03-06 17:34:00,38.0,28.4,30.34,NW,315,9.0,10.0,68,0.00,,---,0.00,VWS V14.00,2013-03-06 23:34:00,
2013-03-06 17:39:00,37.0,27.4,30.34,NW,315,12.0,14.0,68,0.00,,---,0.00,VWS V14.00,2013-03-06 23:39:00,
2013-03-06 17:44:00,37.0,27.4,30.34,NNW,338,11.0,13.0,68,0.00,,---,0.00,VWS V14.00,2013-03-06 23:44:00,
2013-03-06 17:49:00,37.0,27.8,30.34,NNW,338,8.0,8.0,69,0.00,,---,0.00,VWS V14.00,2013-03-06 23:49:00,
2013-03-06 17:54:00,37.0,28.1,30.34,NW,315,7.0,10.0,70,0.00,,---,0.00,VWS V14.00,2013-03-06 23:54:00,
2013-03-06 17:59:00,37.0,28.1,30.35,WNW,292,5.0,5.0,70,0.00,,---,0.00,VWS V14.00,2013-03-06 23:59:00,
2013-03-06 18:04:00,37.0,28.1,30.35,NNW,338,9.0,10.0,70,0.00,,---,0.00,VWS V14.00,2013-03-07 00:04:00,
2013-03-06 18:09:00,37.0,28.1,30.35,NNW,338,5.0,9.0,70,0.00,,---,0.00,VWS V14.00,2013-03-07 00:09:00,
2013-03-06 18:14:00,37.0,28.1,30.35,NNW,338,8.0,10.0,70,0.00,,---,0.00,VWS V14.00,2013-03-07 00:14:00,
2013-03-06 18:19:00,37.0,27.8,30.35,NNW,338,8.0,10.0,69,0.00,,---,0.00,VWS V14.00,2013-03-07 00:19:00,
2013-03-06 18:24:00,37.0,28.1,30.34,WSW,248,4.0,7.0,70,0.00,,---,0.00,VWS V14.00,2013-03-07 00:24:00,
2013-03-06 18:29:00,37.0,28.5,30.35,NW,315,6.0,8.0,71,0.00,,---,0.00,VWS V14.00,2013-03-07 00:29:00,
2013-03-06 18:34:00,37.0,28.5,30.35,NNW,338,6.0,7.0,71,0.00,,---,0.00,VWS V14.00,2013-03-07 00:34:00,
2013-03-06 18:39:00,37.0,28.5,30.34,NNW,338,8.0,9.0,71,0.00,,---,0.00,VWS V14.00,2013-03-07 00:39:00,
2013-03-06 18:44:00,37.0,28.5,30.35,NW,315,6.0,7.0,71,0.00,,---,0.00,VWS V14.00,2013-03-07 00:44:00,
2013-03-06 18:49:00,37.0,28.5,30.35,NW,315,7.0,8.0,71,0.00,,---,0.00,VWS V14.00,2013-03-07 00:49:00,
2013-03-06 18:54:00,37.0,28.5,30.35,NW,315,6.0,8.0,71,0.00,,---,0.00,VWS V14.00,2013-03-07 00:54:00,
2013-03-06 18:59:00,37.0,28.8,30.35,NNW,338,6.0,7.0,72,0.00,,---,0.00,VWS V14.00,2013-03-07 00:59:00,
2013-03-06 19:04:00,37.0,28.8,30.35,NNW,338,6.0,7.0,72,0.00,,---,0.00,VWS V14.00,2013-03-07 01:04:00,
2013-03-06 19:09:00,37.0,28.8,30.35,ESE,112,1.0,5.0,72,0.00,,---,0.00,VWS V14.00,2013-03-07 01:09:00,
2013-03-06 19:14:00,37.0,29.2,30.35,WNW,292,6.0,6.0,73,0.00,,---,0.00,VWS V14.00,2013-03-07 01:14:00,
2013-03-06 19:19:00,37.0,29.2,30.35,NW,315,4.0,5.0,73,0.00,,---,0.00,VWS V14.00,2013-03-07 01:19:00,
2013-03-06 19:24:00,37.0,29.2,30.35,SW,225,3.0,3.0,73,0.00,,---,0.00,VWS V14.00,2013-03-07 01:24:00,
2013-03-06 19:29:00,37.0,29.2,30.36,NNW,338,8.0,10.0,73,0.00,,---,0.00,VWS V14.00,2013-03-07 01:29:00,
2013-03-06 19:34:00,37.0,29.2,30.36,NNW,338,7.0,7.0,73,0.00,,---,0.00,VWS V14.00,2013-03-07 01:34:00,
2013-03-06 19:39:00,36.0,28.2,30.36,ESE,112,2.0,5.0,73,0.00,,---,0.00,VWS V14.00,2013-03-07 01:39:00,
2013-03-06 19:44:00,36.0,28.5,30.35,SSW,202,1.0,3.0,74,0.00,,---,0.00,VWS V14.00,2013-03-07 01:44:00,
2013-03-06 19:49:00,36.0,28.5,30.35,SSW,202,2.0,3.0,74,0.00,,---,0.00,VWS V14.00,2013-03-07 01:49:00,
2013-03-06 19:54:00,36.0,28.2,30.35,West,270,0.0,3.0,73,0.00,,---,0.00,VWS V14.00,2013-03-07 01:54:00,
2013-03-06 19:59:00,36.0,28.5,30.35,SE,135,3.0,3.0,74,0.00,,---,0.00,VWS V14.00,2013-03-07 01:59:00,
2013-03-06 20:04:00,36.0,28.5,30.35,West,270,3.0,5.0,74,0.00,,---,0.00,VWS V14.00,2013-03-07 02:04:00,
2013-03-06 20:09:00,36.0,28.2,30.35,NNW,338,5.0,5.0,73,0.00,,---,0.00,VWS V14.00,2013-03-07 02:09:00,
2013-03-06 20:14:00,36.0,28.5,30.35,NNW,338,2.0,4.0,74,0.00,,---,0.00,VWS V14.00,2013-03-07 02:14:00,
2013-03-06 20:19:00,36.0,28.5,30.35,NNW,338,4.0,8.0,74,0.00,,---,0.00,VWS V14.00,2013-03-07 02:19:00,
2013-03-06 20:24:00,36.0,27.9,30.35,East,90,2.0,7.0,72,0.00,,---,0.00,VWS V14.00,2013-03-07 02:24:00,
2013-03-06 20:29:00,36.0,27.5,30.36,NNW,338,7.0,8.0,71,0.00,,---,0.00,VWS V14.00,2013-03-07 02:29:00,
2013-03-06 20:34:00,36.0,27.9,30.35,WNW,292,3.0,4.0,72,0.00,,---,0.00,VWS V14.00,2013-03-07 02:34:00,
2013-03-06 20:39:00,36.0,27.5,30.35,NNW,338,3.0,6.0,71,0.00,,---,0.00,VWS V14.00,2013-03-07 02:39:00,
2013-03-06 20:44:00,36.0,27.9,30.35,North,0,9.0,10.0,72,0.00,,---,0.00,VWS V14.00,2013-03-07 02:44:00,
2013-03-06 20:49:00,36.0,27.5,30.36,NW,315,3.0,7.0,71,0.00,,---,0.00,VWS V14.00,2013-03-07 02:49:00,
2013-03-06 20:54:00,36.0,27.5,30.35,NNW,338,4.0,7.0,71,0.00,,---,0.00,VWS V14.00,2013-03-07 02:54:00,
2013-03-06 20:59:00,36.0,27.5,30.35,NE,45,1.0,3.0,71,0.00,,---,0.00,VWS V14.00,2013-03-07 02:59:00,
2013-03-06 21:04:00,35.0,27.2,30.35,NW,315,3.0,6.0,73,0.00,,---,0.00,VWS V14.00,2013-03-07 03:04:00,
2013-03-06 21:09:00,35.0,27.6,30.35,SW,225,2.0,4.0,74,0.00,,---,0.00,VWS V14.00,2013-03-07 03:09:00,
2013-03-06 21:14:00,35.0,27.6,30.35,East,90,2.0,3.0,74,0.00,,---,0.00,VWS V14.00,2013-03-07 03:14:00,
2013-03-06 21:19:00,35.0,27.6,30.35,SSW,202,1.0,2.0,74,0.00,,---,0.00,VWS V14.00,2013-03-07 03:19:00,
2013-03-06 21:24:00,35.0,27.2,30.35,SW,225,5.0,8.0,73,0.00,,---,0.00,VWS V14.00,2013-03-07 03:24:00,
2013-03-06 21:29:00,35.0,26.9,30.35,NNW,338,4.0,8.0,72,0.00,,---,0.00,VWS V14.00,2013-03-07 03:29:00,
2013-03-06 21:34:00,35.0,26.9,30.35,NE,45,6.0,6.0,72,0.00,,---,0.00,VWS V14.00,2013-03-07 03:34:00,
2013-03-06 21:39:00,35.0,27.2,30.35,NW,315,3.0,5.0,73,0.00,,---,0.00,VWS V14.00,2013-03-07 03:39:00,
2013-03-06 21:44:00,35.0,27.6,30.35,NE,45,5.0,6.0,74,0.00,,---,0.00,VWS V14.00,2013-03-07 03:44:00,
2013-03-06 21:49:00,35.0,27.6,30.35,East,90,3.0,3.0,74,0.00,,---,0.00,VWS V14.00,2013-03-07 03:49:00,
2013-03-06 21:54:00,35.0,27.6,30.35,NNE,22,5.0,5.0,74,0.00,,---,0.00,VWS V14.00,2013-03-07 03:54:00,
2013-03-06 21:59:00,35.0,27.6,30.35,NNE,22,4.0,5.0,74,0.00,,---,0.00,VWS V14.00,2013-03-07 03:59:00,
2013-03-06 22:04:00,34.0,26.9,30.35,NNE,22,5.0,6.0,75,0.00,,---,0.00,VWS V14.00,2013-03-07 04:04:00,
2013-03-06 22:09:00,34.0,26.9,30.34,NE,45,5.0,6.0,75,0.00,,---,0.00,VWS V14.00,2013-03-07 04:09:00,
2013-03-06 22:14:00,34.0,26.9,30.35,NE,45,3.0,6.0,75,0.00,,---,0.00,VWS V14.00,2013-03-07 04:14:00,
2013-03-06 22:19:00,34.0,27.2,30.34,North,0,2.0,3.0,76,0.00,,---,0.00,VWS V14.00,2013-03-07 04:19:00,
2013-03-06 22:24:00,34.0,27.2,30.35,NNE,22,2.0,5.0,76,0.00,,---,0.00,VWS V14.00,2013-03-07 04:24:00,
2013-03-06 22:29:00,34.0,27.6,30.35,NE,45,1.0,1.0,77,0.00,,---,0.00,VWS V14.00,2013-03-07 04:29:00,
2013-03-06 22:34:00,33.0,26.6,30.35,ENE,68,2.0,3.0,77,0.00,,---,0.00,VWS V14.00,2013-03-07 04:34:00,
2013-03-06 22:39:00,33.0,26.9,30.35,ENE,68,6.0,6.0,78,0.00,,---,0.00,VWS V14.00,2013-03-07 04:39:00,
2013-03-06 22:44:00,33.0,26.9,30.35,NE,45,5.0,6.0,78,0.00,,---,0.00,VWS V14.00,2013-03-07 04:44:00,
2013-03-06 22:49:00,33.0,27.2,30.35,ENE,68,5.0,6.0,79,0.00,,---,0.00,VWS V14.00,2013-03-07 04:49:00,
2013-03-06 22:54:00,33.0,27.2,30.35,ENE,68,6.0,6.0,79,0.00,,---,0.00,VWS V14.00,2013-03-07 04:54:00,
2013-03-06 22:59:00,33.0,27.5,30.34,NE,45,5.0,6.0,80,0.00,,---,0.00,VWS V14.00,2013-03-07 04:59:00,
2013-03-06 23:00:00,33.0,27.5,30.35,NE,45,4.0,6.0,80,0.00,,---,0.00,VWS V14.00,2013-03-07 05:00:00,
2013-03-06 23:05:00,33.0,27.5,30.35,NE,45,4.0,5.0,80,0.00,,---,0.00,VWS V14.00,2013-03-07 05:05:00,
2013-03-06 23:10:00,33.0,27.5,30.35,NE,45,3.0,3.0,80,0.00,,---,0.00,VWS V14.00,2013-03-07 05:10:00,
2013-03-06 23:15:00,33.0,27.8,30.35,ENE,68,2.0,3.0,81,0.00,,---,0.00,VWS V14.00,2013-03-07 05:15:00,
2013-03-06 23:20:00,32.0,26.8,30.35,ENE,68,1.0,2.0,81,0.00,,---,0.00,VWS V14.00,2013-03-07 05:20:00,
2013-03-06 23:25:00,32.0,26.8,30.35,ENE,68,1.0,3.0,81,0.00,,---,0.00,VWS V14.00,2013-03-07 05:25:00,
2013-03-06 23:30:00,32.0,27.1,30.36,NNW,338,0.0,1.0,82,0.00,,---,0.00,VWS V14.00,2013-03-07 05:30:00,
2013-03-06 23:35:00,32.0,27.1,30.36,WNW,292,2.0,3.0,82,0.00,,---,0.00,VWS V14.00,2013-03-07 05:35:00,
2013-03-06 23:40:00,31.0,26.5,30.35,North,0,1.0,3.0,83,0.00,,---,0.00,VWS V14.00,2013-03-07 05:40:00,
2013-03-06 23:45:00,31.0,26.5,30.36,NE,45,3.0,3.0,83,0.00,,---,0.00,VWS V14.00,2013-03-07 05:45:00,
2013-03-06 23:50:00,31.0,26.7,30.35,NNE,22,2.0,4.0,84,0.00,,---,0.00,VWS V14.00,2013-03-07 05:50:00,
2013-03-06 23:55:00,31.0,26.7,30.35,NE,45,3.0,4.0,84,0.00,,---,0.00,VWS V14.00,2013-03-07 05:55:00,